Change the Weather History Date:

Thursday, October 4, 2012

  Actual Average Record
Temperature  
Mean Temperature 72 °F -  
Max Temperature 84 °F 83 °F 93 °F (1986)
Min Temperature 63 °F 56 °F 42 °F (1974)
Cooling Degree Days 8    
Growing Degree Days 22 (Base 50)    
Moisture  
Dew Point 63 °F    
Average Humidity 81    
Maximum Humidity 100    
Minimum Humidity 49    
Precipitation  
Precipitation 0.01 in - - ()
Sea Level Pressure  
Sea Level Pressure 30.17 in    
Wind  
Wind Speed 0 mph (East)    
Max Wind Speed 5 mph    
Max Gust Speed -    
Visibility 8 miles    
Events      
Averages and records for this station are not official NWS values.
T = Trace of Precipitation, MM = Missing Value Source: NWS Daily Summary

Daily Weather History Graph

Daily Weather History Graph

Search for Another Location

Airport or City:

Trip Planner

Search our weather history database for the weather conditions in past years. The results will help you decide how hot, cold, wet, or windy it might be!

Date:

Astronomy

Oct. 04, 2012 Rise Set
Actual Time 6:57 AM CDT 6:42 PM CDT
Civil Twilight 6:33 AM CDT 7:06 PM CDT
Nautical Twilight 6:05 AM CDT 7:34 PM CDT
Astronomical Twilight 5:37 AM CDT 8:02 PM CDT
Moon 9:35 PM CDT (10/4) 10:57 AM CDT (10/4)
Length of Visible Light 12h 33m
Length of Day
11h 44m
Waning Gibbous, 82% of the Moon is Illuminated
Oct 4
Waning Gibbous
Oct 8
Last Quarter
Oct 15
New
Oct 21
First Quarter
Oct 29
Full

Hourly Weather History & Observations

Time (CDT) Temp. Heat Index Dew Point Humidity Pressure Visibility Wind Dir Wind Speed Gust Speed Precip Events Conditions
12:53 AM 64.9 °F - 63.0 °F 93% 30.12 in 4.0 mi Calm Calm - N/A   Clear
1:21 AM 64.4 °F - 62.6 °F 94% 30.14 in 2.5 mi Calm Calm - N/A   Clear
1:35 AM 64.4 °F - 62.6 °F 94% 30.14 in 5.0 mi Calm Calm - N/A   Clear
1:53 AM 64.0 °F - 63.0 °F 96% 30.14 in 4.0 mi Calm Calm - N/A   Clear
2:53 AM 63.0 °F - 63.0 °F 100% 30.14 in 5.0 mi Calm Calm - N/A   Clear
3:53 AM 64.0 °F - 63.0 °F 96% 30.15 in 6.0 mi Calm Calm - 0.01 in   Clear
4:53 AM 64.0 °F - 63.0 °F 96% 30.16 in 5.0 mi Calm Calm - N/A   Clear
5:53 AM 63.0 °F - 62.1 °F 97% 30.18 in 6.0 mi Calm Calm - N/A   Clear
6:53 AM 63.0 °F - 62.1 °F 97% 30.19 in 5.0 mi Calm Calm - N/A   Clear
7:53 AM 64.0 °F - 63.0 °F 96% 30.21 in 5.0 mi Calm Calm - N/A   Clear
8:53 AM 68.0 °F - 64.9 °F 90% 30.23 in 9.0 mi Calm Calm - N/A   Clear
9:53 AM 73.0 °F - 66.9 °F 81% 30.23 in 10.0 mi Variable 4.6 mph - N/A   Clear
10:53 AM 75.9 °F - 66.0 °F 71% 30.23 in 10.0 mi Variable 4.6 mph - N/A   Clear
11:53 AM 79.0 °F - 61.0 °F 54% 30.22 in 10.0 mi Calm Calm - N/A   Clear
12:53 PM 80.1 °F 80.9 °F 60.1 °F 50% 30.20 in 10.0 mi Calm Calm - N/A   Clear
1:53 PM 82.0 °F 82.7 °F 61.0 °F 49% 30.18 in 10.0 mi Variable 4.6 mph - N/A   Clear
2:53 PM 81.0 °F 81.6 °F 60.1 °F 49% 30.16 in 10.0 mi Calm Calm - N/A   Scattered Clouds
3:53 PM 80.1 °F 81.1 °F 61.0 °F 52% 30.16 in 10.0 mi Calm Calm - N/A   Clear
4:53 PM 82.0 °F 82.7 °F 61.0 °F 49% 30.15 in 10.0 mi Calm Calm - N/A   Clear
5:53 PM 80.1 °F 81.5 °F 63.0 °F 56% 30.15 in 10.0 mi East 3.5 mph - N/A   Clear
6:53 PM 72.0 °F - 66.9 °F 84% 30.15 in 10.0 mi Calm Calm - N/A   Clear
7:53 PM 69.1 °F - 64.9 °F 87% 30.15 in 10.0 mi Calm Calm - N/A   Clear
8:53 PM 66.9 °F - 64.0 °F 90% 30.16 in 10.0 mi Calm Calm - N/A   Clear
9:53 PM 66.0 °F - 64.0 °F 93% 30.17 in 10.0 mi Calm Calm - N/A   Clear
10:53 PM 64.9 °F - 62.1 °F 90% 30.16 in 9.0 mi Calm Calm - N/A   Clear
11:53 PM 64.9 °F - 62.1 °F 90% 30.16 in 10.0 mi Calm Calm - N/A   Clear